{"data":{"norad_id":66700,"epoch":"2026-05-25T02:30:57.254112Z","epoch_age_seconds":59246,"freshness":"FRESH","line1":"1 66700U 25276AL  26145.10482933  .00004719  00000+0  21657-3 0  9993","line2":"2 66700  97.4221 219.3477 0002622  73.7670 286.3854 15.20898012 26933","mean_motion":15.20898012,"eccentricity":0.0002622,"inclination_deg":97.4221,"raan_deg":219.3477,"arg_perigee_deg":73.767,"mean_anomaly_deg":286.3854,"bstar":0.00021657,"rev_number":2693,"period_min":94.680904875823,"perigee_km":501.32632232571,"apogee_km":504.93485905027,"semimajor_km":6881.267590688,"source":"CELESTRAK","updated_at":"2026-05-25T13:38:06.416018Z"}}